TimeEDT,TemperatureF,Dew PointF,Humidity,Sea Level PressureIn,VisibilityMPH,Wind Direction,Wind SpeedMPH,Gust SpeedMPH,PrecipitationIn,Events,Conditions,WindDirDegrees,DateUTC
12:52 AM,63.0,44.1,50,29.54,10.0,South,17.3,26.5,N/A,,Overcast,170,2012-10-18 04:52:00
1:52 AM,62.1,44.1,52,29.53,10.0,South,11.5,-,N/A,,Overcast,180,2012-10-18 05:52:00
2:52 AM,63.0,44.1,50,29.53,10.0,South,11.5,-,N/A,,Overcast,190,2012-10-18 06:52:00
3:52 AM,57.0,52.0,83,29.53,7.0,South,17.3,33.4,0.02,Rain,Light Rain,190,2012-10-18 07:52:00
4:52 AM,55.9,52.0,87,29.50,10.0,South,20.7,28.8,0.02,Rain,Light Rain,180,2012-10-18 08:52:00
5:52 AM,55.9,51.1,84,29.50,10.0,South,11.5,-,0.00,,Overcast,190,2012-10-18 09:52:00
6:52 AM,55.0,51.1,86,29.52,5.0,South,18.4,27.6,0.00,Rain,Light Rain,180,2012-10-18 10:52:00
6:56 AM,55.4,51.8,88,29.54,7.0,South,13.8,28.8,0.00,Rain,Light Rain,190,2012-10-18 10:56:00
7:20 AM,53.6,48.2,82,29.57,7.0,West,16.1,27.6,0.02,Rain,Light Rain,260,2012-10-18 11:20:00
7:52 AM,52.0,48.9,89,29.58,8.0,WSW,13.8,21.9,0.03,Rain,Light Rain,250,2012-10-18 11:52:00
8:29 AM,51.8,48.2,88,29.61,8.0,WSW,12.7,23.0,0.00,,Mostly Cloudy,250,2012-10-18 12:29:00
8:52 AM,52.0,46.9,83,29.61,8.0,WSW,12.7,18.4,0.00,,Mostly Cloudy,250,2012-10-18 12:52:00
9:52 AM,53.1,46.0,77,29.65,10.0,WSW,15.0,20.7,N/A,,Scattered Clouds,240,2012-10-18 13:52:00
10:29 AM,53.6,44.6,72,29.67,8.0,SW,18.4,23.0,N/A,,Mostly Cloudy,220,2012-10-18 14:29:00
10:49 AM,53.6,44.6,72,29.68,10.0,SW,15.0,21.9,N/A,,Scattered Clouds,230,2012-10-18 14:49:00
10:52 AM,54.0,45.0,72,29.67,10.0,SW,15.0,21.9,N/A,,Scattered Clouds,230,2012-10-18 14:52:00
11:52 AM,57.0,42.1,57,29.68,9.0,SSW,11.5,20.7,N/A,,Partly Cloudy,210,2012-10-18 15:52:00
12:52 PM,60.1,36.0,41,29.67,10.0,SW,10.4,19.6,N/A,,Partly Cloudy,230,2012-10-18 16:52:00
1:52 PM,62.1,34.0,35,29.66,10.0,WSW,11.5,18.4,N/A,,Partly Cloudy,240,2012-10-18 17:52:00
2:52 PM,63.0,30.9,30,29.65,10.0,SW,11.5,24.2,N/A,,Scattered Clouds,230,2012-10-18 18:52:00
3:52 PM,60.1,28.9,31,29.66,10.0,WSW,16.1,28.8,N/A,,Mostly Cloudy,250,2012-10-18 19:52:00
4:52 PM,59.0,30.9,35,29.68,10.0,SSW,13.8,26.5,0.00,,Scattered Clouds,210,2012-10-18 20:52:00
5:52 PM,55.9,36.0,47,29.69,10.0,West,6.9,-,N/A,,Scattered Clouds,260,2012-10-18 21:52:00
6:52 PM,50.0,37.0,61,29.68,10.0,SSE,8.1,-,N/A,,Scattered Clouds,160,2012-10-18 22:52:00
7:52 PM,50.0,36.0,59,29.69,10.0,SSE,6.9,-,N/A,,Partly Cloudy,160,2012-10-18 23:52:00
8:52 PM,48.9,36.0,61,29.69,10.0,South,5.8,-,N/A,,Partly Cloudy,170,2012-10-19 00:52:00
9:52 PM,48.9,35.1,59,29.69,10.0,South,6.9,-,N/A,,Partly Cloudy,170,2012-10-19 01:52:00
10:52 PM,50.0,34.0,54,29.68,10.0,South,8.1,-,N/A,,Scattered Clouds,170,2012-10-19 02:52:00
11:52 PM,48.9,34.0,56,29.68,10.0,South,6.9,-,N/A,,Scattered Clouds,180,2012-10-19 03:52:00